Time,TemperatureF,DewpointF,PressureIn,WindDirection,WindDirectionDegrees,WindSpeedMPH,WindSpeedGustMPH,Humidity,HourlyPrecipIn,Conditions,Clouds,dailyrainin,SoftwareType,DateUTC
2012-12-01 08:35:00,45.4,21.9,29.80,SE,135,1.0,3.0,39,0.00,,---,0.00,VWS V14.01,2012-12-01 15:35:00,
2012-12-01 08:47:00,45.4,21.9,29.80,SE,135,1.0,3.0,39,0.00,,---,0.00,VWS V14.01,2012-12-01 15:47:00,
2012-12-01 08:48:00,46.8,21.9,29.81,ESE,107,6.0,7.0,37,0.00,,---,0.00,VWS V14.01,2012-12-01 15:48:00,
2012-12-01 08:50:00,47.0,22.1,29.81,ESE,108,1.0,7.0,37,0.00,,---,0.00,VWS V14.01,2012-12-01 15:50:00,
2012-12-01 08:55:00,47.2,22.3,29.81,ESE,108,0.0,5.0,37,0.00,,---,0.00,VWS V14.01,2012-12-01 15:55:00,
2012-12-01 09:00:00,47.3,22.4,29.81,ESE,106,0.0,1.0,37,0.00,,---,0.00,VWS V14.01,2012-12-01 16:00:00,
2012-12-01 09:05:00,47.5,21.9,29.82,ESE,106,0.0,1.0,36,0.00,,---,0.00,VWS V14.01,2012-12-01 16:05:00,
2012-12-01 09:06:00,47.6,22.6,29.82,ESE,106,0.0,1.0,37,0.00,,---,0.00,VWS V14.01,2012-12-01 16:06:00,
2012-12-01 09:11:00,47.9,22.2,29.82,ESE,106,1.0,2.0,36,0.00,,---,0.00,VWS V14.01,2012-12-01 16:11:00,
2012-12-01 09:16:00,48.2,22.5,29.82,ESE,106,0.0,1.0,36,0.00,,---,0.00,VWS V14.01,2012-12-01 16:16:00,
2012-12-01 09:21:00,48.4,22.0,29.82,ESE,103,2.0,2.0,35,0.00,,---,0.00,VWS V14.01,2012-12-01 16:21:00,
2012-12-01 09:26:00,48.7,22.3,29.81,ESE,102,1.0,4.0,35,0.00,,---,0.00,VWS V14.01,2012-12-01 16:26:00,
2012-12-01 09:31:00,48.9,21.8,29.81,ENE,76,2.0,4.0,34,0.00,,---,0.00,VWS V14.01,2012-12-01 16:31:00,
2012-12-01 09:36:00,49.2,22.0,29.81,ENE,69,5.0,6.0,34,0.00,,---,0.00,VWS V14.01,2012-12-01 16:36:00,
2012-12-01 09:41:00,49.5,21.6,29.81,ENE,63,5.0,7.0,33,0.00,,---,0.00,VWS V14.01,2012-12-01 16:41:00,
2012-12-01 09:46:00,49.6,21.7,29.81,ENE,63,0.0,1.0,33,0.00,,---,0.00,VWS V14.01,2012-12-01 16:46:00,
2012-12-01 09:51:00,49.7,21.8,29.81,ENE,63,1.0,2.0,33,0.00,,---,0.00,VWS V14.01,2012-12-01 16:51:00,
2012-12-01 09:56:00,50.0,22.0,29.82,ENE,63,0.0,2.0,33,0.00,,---,0.00,VWS V14.01,2012-12-01 16:56:00,
2012-12-01 10:01:00,50.1,21.4,29.81,ENE,63,0.0,0.0,32,0.00,,---,0.00,VWS V14.01,2012-12-01 17:01:00,
2012-12-01 10:06:00,50.1,21.4,29.83,ENE,63,0.0,4.0,32,0.00,,---,0.00,VWS V14.01,2012-12-01 17:06:00,
2012-12-01 10:11:00,50.3,21.6,29.83,ENE,63,0.0,0.0,32,0.00,,---,0.00,VWS V14.01,2012-12-01 17:11:00,
2012-12-01 10:16:00,50.8,22.0,29.83,ENE,63,3.0,3.0,32,0.00,,---,0.00,VWS V14.01,2012-12-01 17:16:00,
2012-12-01 10:21:00,51.2,21.6,29.82,South,173,0.0,5.0,31,0.00,,---,0.00,VWS V14.01,2012-12-01 17:21:00,
2012-12-01 10:26:00,51.8,21.4,29.80,South,176,2.0,6.0,30,0.00,,---,0.00,VWS V14.01,2012-12-01 17:26:00,
2012-12-01 10:31:00,52.4,21.1,29.79,South,181,0.0,6.0,29,0.00,,---,0.00,VWS V14.01,2012-12-01 17:31:00,
2012-12-01 10:36:00,52.7,20.5,29.80,SSW,205,2.0,6.0,28,0.00,,---,0.00,VWS V14.01,2012-12-01 17:36:00,
2012-12-01 10:41:00,52.3,20.2,29.80,SSW,205,0.0,5.0,28,0.00,,---,0.00,VWS V14.01,2012-12-01 17:41:00,
2012-12-01 10:46:00,52.3,20.2,29.80,SSW,205,2.0,4.0,28,0.00,,---,0.00,VWS V14.01,2012-12-01 17:46:00,
2012-12-01 10:51:00,52.4,20.3,29.79,SSW,205,0.0,1.0,28,0.00,,---,0.00,VWS V14.01,2012-12-01 17:51:00,
2012-12-01 10:56:00,52.6,20.4,29.79,SSW,205,0.0,1.0,28,0.00,,---,0.00,VWS V14.01,2012-12-01 17:56:00,
2012-12-01 11:01:00,52.8,19.8,29.79,SSW,205,4.0,4.0,27,0.00,,---,0.00,VWS V14.01,2012-12-01 18:01:00,
2012-12-01 11:06:00,53.2,21.0,29.79,SSW,203,1.0,2.0,28,0.00,,---,0.00,VWS V14.01,2012-12-01 18:06:00,
2012-12-01 11:11:00,53.6,20.5,29.79,SSW,204,0.0,4.0,27,0.00,,---,0.00,VWS V14.01,2012-12-01 18:11:00,
2012-12-01 11:16:00,53.9,20.7,29.79,SSW,203,0.0,0.0,27,0.00,,---,0.00,VWS V14.01,2012-12-01 18:16:00,
2012-12-01 11:22:00,54.1,20.9,29.79,WSW,238,0.0,2.0,27,0.00,,---,0.00,VWS V14.01,2012-12-01 18:22:00,
2012-12-01 11:27:00,54.3,20.2,29.78,WSW,254,0.0,2.0,26,0.00,,---,0.00,VWS V14.01,2012-12-01 18:27:00,
2012-12-01 11:32:00,54.2,21.0,29.78,West,259,1.0,5.0,27,0.00,,---,0.00,VWS V14.01,2012-12-01 18:32:00,
2012-12-01 11:37:00,54.1,20.9,29.78,West,266,0.0,7.0,27,0.00,,---,0.00,VWS V14.01,2012-12-01 18:37:00,
2012-12-01 11:42:00,54.1,20.9,29.78,West,266,0.0,5.0,27,0.00,,---,0.00,VWS V14.01,2012-12-01 18:42:00,
2012-12-01 11:47:00,54.1,20.9,29.78,West,267,1.0,4.0,27,0.00,,---,0.00,VWS V14.01,2012-12-01 18:47:00,
2012-12-01 11:52:00,54.1,20.9,29.78,West,267,0.0,1.0,27,0.00,,---,0.00,VWS V14.01,2012-12-01 18:52:00,
2012-12-01 11:57:00,54.4,21.1,29.77,NW,323,2.0,6.0,27,0.00,,---,0.00,VWS V14.01,2012-12-01 18:57:00,
2012-12-01 12:02:00,54.7,20.5,29.76,NNW,327,0.0,5.0,26,0.00,,---,0.00,VWS V14.01,2012-12-01 19:02:00,
2012-12-01 12:07:00,55.1,20.9,29.76,NNW,329,2.0,7.0,26,0.00,,---,0.00,VWS V14.01,2012-12-01 19:07:00,
2012-12-01 12:12:00,55.2,20.9,29.76,NNW,329,2.0,6.0,26,0.00,,---,0.00,VWS V14.01,2012-12-01 19:12:00,
2012-12-01 12:17:00,55.5,20.3,29.75,NNW,329,0.0,5.0,25,0.00,,---,0.00,VWS V14.01,2012-12-01 19:17:00,
2012-12-01 12:22:00,56.3,20.0,29.74,NNW,329,0.0,4.0,24,0.00,,---,0.00,VWS V14.01,2012-12-01 19:22:00,
2012-12-01 12:27:00,56.4,20.1,29.74,NNW,331,0.0,6.0,24,0.00,,---,0.00,VWS V14.01,2012-12-01 19:27:00,
2012-12-01 12:32:00,56.3,20.0,29.74,North,350,1.0,1.0,24,0.00,,---,0.00,VWS V14.01,2012-12-01 19:32:00,
2012-12-01 12:37:00,56.7,20.3,29.74,North,350,2.0,4.0,24,0.00,,---,0.00,VWS V14.01,2012-12-01 19:37:00,
2012-12-01 12:42:00,56.5,19.2,29.74,North,350,0.0,5.0,23,0.00,,---,0.00,VWS V14.01,2012-12-01 19:42:00,
2012-12-01 12:47:00,56.9,19.5,29.73,North,350,1.0,1.0,23,0.00,,---,0.00,VWS V14.01,2012-12-01 19:47:00,
2012-12-01 12:52:00,57.1,19.7,29.73,North,350,1.0,6.0,23,0.00,,---,0.00,VWS V14.01,2012-12-01 19:52:00,
2012-12-01 12:57:00,57.1,19.7,29.73,North,350,1.0,6.0,23,0.00,,---,0.00,VWS V14.01,2012-12-01 19:57:00,
2012-12-01 13:02:00,56.9,18.5,29.73,North,350,0.0,2.0,22,0.00,,---,0.00,VWS V14.01,2012-12-01 20:02:00,
2012-12-01 13:07:00,57.4,18.9,29.73,North,350,2.0,6.0,22,0.00,,---,0.00,VWS V14.01,2012-12-01 20:07:00,
2012-12-01 13:12:00,57.6,19.1,29.73,North,350,0.0,5.0,22,0.00,,---,0.00,VWS V14.01,2012-12-01 20:12:00,
2012-12-01 13:17:00,57.2,18.7,29.73,North,350,1.0,2.0,22,0.00,,---,0.00,VWS V14.01,2012-12-01 20:17:00,
2012-12-01 13:22:00,57.4,18.9,29.73,North,349,0.0,0.0,22,0.00,,---,0.00,VWS V14.01,2012-12-01 20:22:00,
2012-12-01 13:27:00,58.2,18.5,29.72,North,349,0.0,2.0,21,0.00,,---,0.00,VWS V14.01,2012-12-01 20:27:00,
2012-12-01 13:32:00,58.9,19.1,29.71,NNW,336,0.0,8.0,21,0.00,,---,0.00,VWS V14.01,2012-12-01 20:32:00,
2012-12-01 13:37:00,59.4,19.5,29.71,WNW,292,4.0,9.0,21,0.00,,---,0.00,VWS V14.01,2012-12-01 20:37:00,
2012-12-01 13:42:00,59.0,19.1,29.71,West,259,2.0,5.0,21,0.00,,---,0.00,VWS V14.01,2012-12-01 20:42:00,
2012-12-01 13:47:00,59.0,18.0,29.72,West,259,0.0,2.0,20,0.00,,---,0.00,VWS V14.01,2012-12-01 20:47:00,
2012-12-01 13:52:00,59.0,18.0,29.71,West,259,0.0,2.0,20,0.00,,---,0.00,VWS V14.01,2012-12-01 20:52:00,
2012-12-01 13:57:00,59.4,18.3,29.71,SW,219,5.0,14.0,20,0.00,,---,0.00,VWS V14.01,2012-12-01 20:57:00,
2012-12-01 14:02:00,59.3,18.3,29.71,WSW,244,7.0,12.0,20,0.00,,---,0.00,VWS V14.01,2012-12-01 21:02:00,
2012-12-01 14:07:00,59.0,19.1,29.74,SW,235,4.0,8.0,21,0.00,,---,0.00,VWS V14.01,2012-12-01 21:07:00,
2012-12-01 14:12:00,59.0,18.0,29.75,SW,236,4.0,7.0,20,0.00,,---,0.00,VWS V14.01,2012-12-01 21:12:00,
2012-12-01 14:17:00,59.0,18.0,29.75,SW,234,6.0,10.0,20,0.00,,---,0.00,VWS V14.01,2012-12-01 21:17:00,
2012-12-01 14:22:00,59.0,18.0,29.75,SW,235,5.0,8.0,20,0.00,,---,0.00,VWS V14.01,2012-12-01 21:22:00,
2012-12-01 14:27:00,59.0,18.0,29.75,SW,234,0.0,2.0,20,0.00,,---,0.00,VWS V14.01,2012-12-01 21:27:00,
2012-12-01 14:32:00,58.8,16.7,29.75,SW,221,7.0,7.0,19,0.00,,---,0.00,VWS V14.01,2012-12-01 21:32:00,
2012-12-01 14:37:00,57.7,16.9,29.75,West,265,1.0,9.0,20,0.00,,---,0.00,VWS V14.01,2012-12-01 21:37:00,
2012-12-01 14:42:00,57.2,16.5,29.77,West,277,5.0,11.0,20,0.00,,---,0.00,VWS V14.01,2012-12-01 21:42:00,
2012-12-01 14:47:00,57.2,16.5,29.77,West,277,0.0,4.0,20,0.00,,---,0.00,VWS V14.01,2012-12-01 21:47:00,
2012-12-01 14:52:00,57.5,16.8,29.75,West,276,2.0,6.0,20,0.00,,---,0.00,VWS V14.01,2012-12-01 21:52:00,
2012-12-01 14:57:00,57.3,17.7,29.77,West,277,0.0,6.0,21,0.00,,---,0.00,VWS V14.01,2012-12-01 21:57:00,
2012-12-01 15:02:00,57.2,17.6,29.77,West,276,1.0,1.0,21,0.00,,---,0.00,VWS V14.01,2012-12-01 22:02:00,
2012-12-01 15:07:00,57.2,16.5,29.77,West,276,1.0,5.0,20,0.00,,---,0.00,VWS V14.01,2012-12-01 22:07:00,
2012-12-01 15:12:00,57.8,15.8,29.75,West,277,3.0,7.0,19,0.00,,---,0.00,VWS V14.01,2012-12-01 22:12:00,
2012-12-01 15:18:00,57.9,15.9,29.76,WNW,300,4.0,9.0,19,0.00,,---,0.00,VWS V14.01,2012-12-01 22:18:00,
2012-12-01 15:23:00,58.0,16.0,29.76,WNW,301,1.0,3.0,19,0.00,,---,0.00,VWS V14.01,2012-12-01 22:23:00,
2012-12-01 15:28:00,57.4,16.7,29.76,NW,310,6.0,13.0,20,0.00,,---,0.00,VWS V14.01,2012-12-01 22:28:00,
2012-12-01 15:33:00,57.3,16.6,29.78,NW,309,2.0,8.0,20,0.00,,---,0.00,VWS V14.01,2012-12-01 22:33:00,
2012-12-01 15:38:00,57.5,16.8,29.76,NW,304,4.0,15.0,20,0.00,,---,0.00,VWS V14.01,2012-12-01 22:38:00,
2012-12-01 15:43:00,58.0,17.2,29.76,WNW,295,0.0,6.0,20,0.00,,---,0.00,VWS V14.01,2012-12-01 22:43:00,
2012-12-01 15:48:00,58.1,17.3,29.76,WNW,295,1.0,3.0,20,0.00,,---,0.00,VWS V14.01,2012-12-01 22:48:00,
2012-12-01 15:53:00,57.9,17.1,29.76,WNW,295,0.0,2.0,20,0.00,,---,0.00,VWS V14.01,2012-12-01 22:53:00,
2012-12-01 15:58:00,57.1,16.4,29.78,WNW,295,4.0,5.0,20,0.00,,---,0.00,VWS V14.01,2012-12-01 22:58:00,
2012-12-01 16:03:00,56.3,15.8,29.79,WNW,292,1.0,10.0,20,0.00,,---,0.00,VWS V14.01,2012-12-01 23:03:00,
2012-12-01 16:08:00,56.2,15.7,29.81,WNW,292,0.0,0.0,20,0.00,,---,0.00,VWS V14.01,2012-12-01 23:08:00,
2012-12-01 16:13:00,55.7,16.4,29.81,WNW,292,0.0,1.0,21,0.00,,---,0.00,VWS V14.01,2012-12-01 23:13:00,
2012-12-01 16:18:00,54.7,15.6,29.83,WNW,292,0.0,2.0,21,0.00,,---,0.00,VWS V14.01,2012-12-01 23:18:00,
2012-12-01 16:23:00,53.3,14.4,29.85,WNW,292,2.0,5.0,21,0.00,,---,0.00,VWS V14.01,2012-12-01 23:23:00,
2012-12-01 16:28:00,52.2,14.5,29.85,WNW,292,1.0,5.0,22,0.00,,---,0.00,VWS V14.01,2012-12-01 23:28:00,
2012-12-01 16:33:00,51.5,13.9,29.85,WNW,292,0.0,4.0,22,0.00,,---,0.00,VWS V14.01,2012-12-01 23:33:00,
2012-12-01 16:38:00,51.0,13.5,29.87,WNW,292,0.0,1.0,22,0.00,,---,0.00,VWS V14.01,2012-12-01 23:38:00,
2012-12-01 16:43:00,50.4,13.0,29.87,WNW,292,0.0,0.0,22,0.00,,---,0.00,VWS V14.01,2012-12-01 23:43:00,
2012-12-01 16:48:00,49.5,13.2,29.88,WNW,292,1.0,3.0,23,0.00,,---,0.00,VWS V14.01,2012-12-01 23:48:00,
2012-12-01 16:53:00,48.7,12.6,29.90,WNW,292,0.0,0.0,23,0.00,,---,0.00,VWS V14.01,2012-12-01 23:53:00,
2012-12-01 16:58:00,48.1,13.0,29.90,WNW,292,1.0,4.0,24,0.00,,---,0.00,VWS V14.01,2012-12-01 23:58:00,
2012-12-01 17:03:00,47.6,12.6,29.90,WNW,292,0.0,2.0,24,0.00,,---,0.00,VWS V14.01,2012-12-02 00:03:00,
2012-12-01 17:08:00,47.4,13.4,29.89,WNW,292,0.0,1.0,25,0.00,,---,0.00,VWS V14.01,2012-12-02 00:08:00,
2012-12-01 17:13:00,47.4,13.4,29.89,WNW,292,0.0,0.0,25,0.00,,---,0.00,VWS V14.01,2012-12-02 00:13:00,
2012-12-01 17:18:00,47.4,13.4,29.89,WNW,292,0.0,0.0,25,0.00,,---,0.00,VWS V14.01,2012-12-02 00:18:00,
2012-12-01 17:23:00,47.4,13.4,29.89,WNW,292,0.0,0.0,25,0.00,,---,0.00,VWS V14.01,2012-12-02 00:23:00,
2012-12-01 17:28:00,47.2,13.2,29.89,WNW,292,0.0,1.0,25,0.00,,---,0.00,VWS V14.01,2012-12-02 00:28:00,